sat.trackr.live / text

‹ back to catalog

STARLINK-33797

NORAD 63448 · 2025-069R

PAYLOAD ACTIVE UNKNOWN

§ Identity

Operator
Country
US
Launch date
2025-04-04
Launch site
AFWTR
Launch vehicle
Mass (kg)
RCS (m²)

Purposes: comms

External: N2YO · Heavens-Above · Gunter

§ Orbital elements

Epoch: 2026-09-20T22:00:03.000096Z

Period
93.85 min
Inclination
53.1598°
Eccentricity
0.0001196
Mean motion
15.34380588 rev/d
Perigee alt
461.9 km
Apogee alt
463.6 km
Semi-major
6,840.9 km
B*
6.9526e-4
RAAN
308.0000°
Arg perigee
80.7205°
Mean anomaly
248.0096°
Rev number
588

§ Raw data

STARLINK-337971 63448U 25069R   26263.91670139  .00023172  00000+0  69526-3 0  99972 63448  53.1598 308.0000 0001196  80.7205 248.0096 15.34380588  5883

JSON: /api/v1/satellites/63448 · /tle

For live sub-satellite position, see the globe view (requires WebGL).

§ Visibility from observer

Set your observer location to see the next 7 days of passes ≥ 10°. The values pass through the URL so the page stays shareable.

No JS? Fill the form by hand. The geolocation button needs JavaScript.